Location: Charbonni�res
(45.9952°N, 2.9982°E)
Time: 17:58:42
(UTC+00:00)

Cosmos 2184 Rocket - Pass Details

Date: 29 November 2020
Orbit: 958 x 1003 km, 82.9° (Epoch: 22 January)

Event Time Altitude Azimuth Distance (km) Brightness Sun altitude
Rises 05:45:36 0° 202° (SSW) 3,682 7.0 -13.8°
Reaches altitude 10° 05:48:10 10° 208° (SSW) 2,744 6.3 -13.4°
Maximum altitude 05:54:18 52° 284° (WNW) 1,222 4.2 -12.3°
Drops below altitude 10° 06:00:32 10° 0° (N) 2,783 6.2 -11.3°
Sets 06:03:11 0° 5° (N) 3,740 6.9 -10.9°
